Regional Weather Roundup
Issued by NWS

Home | Current Version | Previous Version | Graphics & Text | Print | Product List | Glossary On
Versions: 1 2 3 4 5 6 7 8 9 10 11 12 13 14 15 16 17 18 19 20 21 22 23 24 25 26 27 28 29 30 31 32 33 34 35 36 37 38 39 40 41 42 43 44 45 46 47 48 49 50
096
ASUS44 KLIX 300201
RWRLA
LOUISIANA WEATHER ROUNDUP
NATIONAL WEATHER SERVICE NEW ORLEANS LA
900 PM CDT MON SEP 29 2014

NOTE: "FAIR" INDICATES FEW OR NO CLOUDS BELOW 12,000 FEET WITH NO
      SIGNIFICANT WEATHER AND/OR OBSTRUCTIONS TO VISIBILITY.
      SKY/WX - SKY CONDITION AND SIGNIFICANT WEATHER.
      TMP - AIR TEMPERATURE.    DP   - DEWPOINT TEMPERATURE.
      RH  - RELATIVE HUMIDITY.  PRES - PRESSURE.
      HX  - HEAT INDEX.         WCI  - WIND CHILL INDEX.

*  THESE STATIONS ARE NOT NWS OR FAA STATIONS AND ARE NOT UNDER
   NWS QUALITY CONTROL.

LAZ040-048-061>063-065-066-069-300300-
SOUTHEAST LOUISIANA

CITY           SKY/WX    TMP DP  RH WIND       PRES   REMARKS
N.O. AUDUBON     N/A     76  73  88 MISG        N/A
N.O. INTL ARPT PTCLDY    77  70  79 CALM      29.88R
N.O. LAKEFRONT CLEAR     79  74  84 CALM      29.89R
N.O. DOWNTOWN* FAIR      81  68  65 CALM      29.89R
SLIDELL        CLEAR     75  72  90 CALM      29.88R
BATON ROUGE    CLEAR     74  71  91 CALM      29.89R
BOOTHVILLE     CLEAR     78  73  84 NE3       29.88R
BELLE CHASSE   PTCLDY    74  70  87 CALM      29.88R
BOGALUSA*      FAIR      75  71  87 CALM      29.91R
GALLIANO*      NOT AVBL
NEW ROADS*     FAIR      75  74  97 CALM      29.90R
GONZALES*      NOT AVBL
HAMMOND*       NOT AVBL
HOUMA*         MOCLDY   N/A N/A N/A CALM      29.89R
PORT FOURCHON* CLEAR     81  73  78 NE5       29.91S

$$

LAZ041-044-053-054-300300-
SOUTHWEST LOUISIANA

CITY           SKY/WX    TMP DP  RH WIND       PRES   REMARKS
LAKE CHARLES   MOCLDY    79  74  84 NE8       29.88R
LAFAYETTE      PTCLDY    78  74  87 SE5       29.89R
PATTERSON      MOCLDY    75  73  94 CALM      29.92R
SALT POINT       N/A     78  75  90 CALM      29.88R
NEW IBERIA     CLOUDY    77  73  87 NE6       29.90R
CHENAULT AIRPK NOT AVBL

$$

LAZ027-028-300300-
CENTRAL LOUISIANA

CITY           SKY/WX    TMP DP  RH WIND       PRES   REMARKS
FORT POLK      CLEAR     74  71  88 MISG      29.90R
ALEXANDRIA INT MOCLDY    76  71  85 NE3       29.88R
ALEXANDRIA     MOCLDY    74  72  93 CALM      29.90R

$$

LAZ001-002-300300-
NORTHWEST LOUISIANA

CITY           SKY/WX    TMP DP  RH WIND       PRES   REMARKS
SHREVEPORT     PTCLDY    79  64  60 NE5       29.90S
BARKSDALE AFB  PTCLDY    78  65  63 NE2       29.91R
DTN SHREVEPORT CLOUDY    79  65  62 NE3       29.91R

$$

LAZ014-016-300300-
NORTHEAST LOUISIANA

CITY           SKY/WX    TMP DP  RH WIND       PRES   REMARKS
MONROE         CLEAR     73  68  84 CALM      29.92R
TALLULAH       CLEAR     70  67  90 CALM      29.90R

$$




USA.gov is the U.S. government's official web portal to all federal, state and local government web resources and services.